www.pogodaiklimat.ru

Погода и климат >> Архив погоды >> Россия >> Краснодарский край >> Тимашевск


ПОГОДА в Тимашевске

  • Прогноз погоды в Тимашевске
  • Монитор погоды в Тимашевске

АРХИВ ПОГОДЫ в Тимашевске

Время (UTC), дата Ветер
(напр.,м/с)
 
Видим.   Явления Облачность Т
(С)
Тd
(С)
f
(%)
Тe
(С)
Тes
(С)
Комфортность P
(гПа)
Po
(гПа)
Тmin
(С)
Tmax
(С)
R
(мм)
R24
(мм)
S
(см)
21 15.09 С 1 10 км ясно +13.7 +0.4 40 +14 +14 1020.7 1018.0
00 16.09 С 1 10 км ясно +11.2 +2.8 56 +11 +11 1020.2 1017.6
03 16.09 СВ 1 10 км ясно +11.2 +4.2 62 +11 +11 1019.1 1016.4 +11.2
06 16.09 СВ 2 10 км ясно +18.9 +2.9 34 +20 +24 1018.1 1015.4 +10.7
09 16.09 З 1 10 км ясно +24.4 +5.4 29 +24 +37 комфорт 1016.3 1013.7
12 16.09 СЗ 1 10 км ясно +26.6 +4.6 24 +26 +34 жарко 1013.9 1011.4
15 16.09 СЗ 3 10 км ясно +23.3 +3.3 27 +23 +23 комфорт 1013.4 1010.8 +27.5
18 16.09 штиль 0 10 км ясно +14.8 +6.4 57 +15 +15 1013.8 1011.2
21 16.09 ЮЗ 1 10 км ясно +12.3 +7.5 72 +12 +12 1013.8 1011.1
00 17.09 Ю 1 10 км ясно +11.4 +7.5 77 +11 +11 1013.3 1010.7
03 17.09 Ю 1 10 км ясно +10.6 +7.3 80 +10 +10 1012.8 1010.1 +10.5
06 17.09 Ю 2 10 км ясно +18.8 +11.3 62 +20 +24 1012.5 1009.9
09 17.09 ЮЗ 4 10 км ясно +25.3 +5.6 28 +25 +32 комфорт 1011.5 1008.9
12 17.09 З 3 10 км 3/3 600 м
[Cu hum]
+26.6 +6.4 28 +26 +30 жарко 1010.3 1007.8
15 17.09 ЮЗ 4
{10}
10 км 10/8 600 м
[Sc Ac cast Cc]
+23.4 +7.5 36 +24 +24 комфорт 1010.3 1007.8 +26.7
18 17.09 ЮЗ 3 10 км 10/10 600 м
[Sc]
+20.3 +11.6 57 +22 +22 комфорт 1011.7 1009.1
21 17.09 ЮЗ 3 10 км 8/8 600 м
[Sc]
+19.8 +13.2 66 +22 +22 комфорт 1011.6 1009.0
00 18.09 Ю 3
{10}
10 км 9/9 600 м
[Sc]
+20.0 +13.0 64 +22 +22 комфорт 1010.9 1008.3
03 18.09 ЮЗ 4 10 км слаб. ливневой дождь 10/10 600 м
[Cb cap]
+17.8 +16.2 90 +18 +18 1010.7 1008.1 +17.6 4
06 18.09 ЮЗ 3 10 км {ливн. осадки} 10/10 600 м
[Sc diur, vesp]
+20.7 +17.3 81 +25 +25 комфорт 1011.7 1009.1
09 18.09 ЮЗ 7-15
{15}
10 км 8/8 600 м
[Sc diur, vesp]
+25.8 +13.3 46 +28 +28 жарко 1010.4 1007.9
12 18.09 ЮЗ 7-18
{18}
10 км 8/0
[Cc]
+26.5 +11.8 40 +28 +29 жарко 1009.3 1006.8
15 18.09 ЮЗ 7-16
{18}
10 км 9/9 600 м
[Cu Sc]
+24.2 +12.2 47 +26 +26 жарко 1009.5 1007.0 +26.7 0.3
18 18.09 ЮЗ 2
{14}
10 км {гроза, ливн. осадки} 10/10 600 м
[Sc]
+17.4 +16.2 93 +18 +18 1013.7 1011.1
21 18.09 З 3 10 км 10/10 600 м
[Cu Sc]
+16.2 +8.7 61 +16 +16 1016.2 1013.6
00 19.09 штиль 0 10 км 10/10 600 м
[Sc]
+13.9 +8.0 68 +14 +14 1017.6 1014.9
03 19.09 ЮЗ 1 10 км ясно +10.9 +8.4 85 +11 +11 1019.0 1016.3 +10.9 13
06 19.09 С 2 10 км 1/0
[Ci fib]
+15.2 +5.9 54 +15 +19 1020.5 1017.9 +10.6
09 19.09 З 3 10 км 8/5 1000 м
[Cu hum Ci sp]
+18.8 +6.7 45 +19 +23 1020.4 1017.8
12 19.09 СЗ 2 10 км 9/8 600 м
[Cu Sc Ac As Ci sp]
+18.3 +7.1 48 +19 +20 1020.3 1017.7
15 19.09 З 2 10 км 9/9 1000 м
[Sc]
+16.2 +7.7 57 +16 +16 1020.6 1018.0 +19.7
18 19.09 З 1 10 км 10/10 600 м
[Sc]
+14.2 +7.9 66 +15 +15 1020.8 1018.2
21 19.09 штиль 0 н/о н/о +12.2 +8.5 78 +12 +12 1020.3 1017.6
00 20.09 штиль 0 10 км 10/10 600 м
[Sc]
+11.0 +9.1 88 +10 +10 1019.8 1017.1
03 20.09 ЮВ 1 10 км 10/10 600 м
[Sc]
+12.5 +8.9 79 +13 +13 1019.4 1016.7 +10.8
06 20.09 В 1 10 км 10/10 600 м
[Sc]
+12.4 +9.3 81 +12 +12 1018.3 1015.6
09 20.09 СВ 1 10 км в посл. час ливневой дождь 10/10 600 м
[Cb cap]
+12.4 +8.8 79 +12 +12 1017.2 1014.6
12 20.09 С 2 10 км {ливн. осадки} 10/10 600 м
[Sc diur, vesp]
+12.1 +7.0 71 +11 +11 1016.3 1013.6
15 20.09 С 2 10 км {ливн. осадки} 10/10 600 м
[Cb cap]
+9.9 +7.5 85 +8 +8 1016.9 1014.2 +12.9 1
18 20.09 В 1 10 км слаб. ливневой дождь 10/10 600 м
[Cb cap]
+9.0 +7.8 92 +8 +8 1017.6 1014.9
21 20.09 Ю 1 10 км {ливн. осадки} 3/3 600 м
[Sc]
+7.9 +6.8 93 +7 +7 1017.0 1014.3
00 21.09 З 1 10 км слаб. ливневой дождь 10/10 600 м
[Cb cap]
+8.3 +7.2 93 +7 +7 1017.6 1014.9
03 21.09 Ю 1 10 км {ливн. осадки} 10/8 600 м
[Sc Ac lent Ci]
+8.3 +7.1 92 +7 +7 1016.7 1014.0 +7.3 4
06 21.09 ЮЗ 2 10 км {ливн. осадки} 3/3 600 м
[Sc]
+11.4 +8.4 82 +10 +13 1017.4 1014.8
09 21.09 СЗ 3 10 км слаб. ливневой дождь, в посл. час гроза 10/10 600 м
[Cb cap]
+11.7 +6.4 70 +10 +10 1018.6 1015.9
12 21.09 З 3 10 км {гроза, ливн. осадки} 8/3 600 м
[Cu hum Ac cast Ci fib]
+14.7 +5.1 53 +14 +16 1018.6 1015.9
15 21.09 З 2 10 км 8/8 600 м
[Cu med, cong]
+13.6 +6.3 61 +13 +13 1019.1 1016.5 +14.8 0.0
18 21.09 З 1 10 км 9/9 600 м
[Sc diur, vesp]
+10.4 +4.5 67 +10 +10 1021.2 1018.5
21 21.09 ЮЗ 1 10 км 6/6 600 м
[Sc]
+8.5 +4.9 78 +8 +8 1021.5 1018.8
00 22.09 ЮЗ 1 10 км 6/6 600 м
[Sc]
+8.3 +5.4 82 +8 +8 1021.9 1019.2
03 22.09 ЮЗ 1 10 км 9/9 600 м
[Sc]
+8.2 +5.7 84 +7 +7 1022.0 1019.3 +8.1
06 22.09 ЮЗ 3 10 км ясно +13.3 +6.5 63 +12 +15 1022.2 1019.5 +7.9
09 22.09 ЮЗ 6-13
{13}
10 км 9/0
[Ac trans]
+16.4 +0.3 33 +15 +17 1021.1 1018.5
12 22.09 ЮЗ 6-15
{15}
10 км 10/6 600 м
[Cu Sc Ac As]
+17.3 +5.4 45 +17 +17 1019.7 1017.1
15 22.09 ЮЗ 5-12
{15}
10 км 8/8 600 м
[Sc]
+15.6 +6.4 54 +15 +15 1019.0 1016.3 +17.4
18 22.09 ЮЗ 4
{12}
10 км 4/4
[Sc]
+13.6 +5.5 58 +12 +12 1019.1 1016.4

 

Местоположение метеостанции Тимашевск (Краснодарский край, Россия): широта 45.63 долгота 38.93 высота над уровнем моря 22 м.

В архиве по умолчанию представлена погода в Тимашевске за последнюю неделю. Архивные данные за месяц целиком и за предыдущие месяцы, начиная с января 2011 года, Вы можете получить, выбрав интересующий диапазон дат из раскрывающегося списка и нажав кнопку "Ввод!".


*Определитесь, кто Вы:
робот инопланетянин человек

Внимание! Время в таблицах - всемирное. Для получения местного времени необходимо прибавить поправку, которая равна 3 ч.

Смотрите также архив погоды в соседних городах и на ближайших метеорологических станциях:

Погода в Кореновске (Краснодарский край, Россия) (46 км)
Погода в Каневской (Краснодарский край, Россия) (49 км)
Погода в Краснодаре (Краснодарский край, Россия) (65 км)
Погода в Славянске-на-Кубани (Краснодарский край, Россия) (74 км)
Погода в Приморско-Ахтарске (Краснодарский край, Россия) (75 км)
Погода в Усть-Лабинске (Краснодарский край, Россия) (77 км)
Погода в Сосыке (Краснодарский край, Россия) (89 км)
Погода в Тихорецке (Краснодарский край, Россия) (93 км)
Погода в Староминская (Краснодарский край, Россия) (100 км)
Погода в Крымске (Краснодарский край, Россия) (107 км)

Пояснения к столбцам:

Ветер - указаны скорость ветра в м/с - средняя за 10 мин, порывы в срок и между сроками (в фигурных скобках) и направление, откуда дует ветер: С - северный, СВ - северо-восточный, В - восточный, ЮВ - юго-восточный, Ю - южный, ЮЗ - юго-западный, З - западный, СЗ - северо-западный.
Видимость - горизонтальная дальность видимости в метрах или километрах. При видимости от 1 до 10 км при отсутствии осадков обычно наблюдается дымка, при ухудшении видимости до 1 км и менее - туман. В сухую погоду видимость может ухудшаться дымом, пылью или мглою.
Явления - указаны атмосферные явления, наблюдавшиеся в срок или в последний час перед сроком; фигурными скобками обозначены явления, наблюдавшиеся между сроками (за 1-3 часа до срока); квадратными скобками обозначены град или гололедные отложения с указанием их диаметра в мм.
Облачность - указаны через наклонную черту общая и нижняя облачность в баллах и высота нижней границы облаков в метрах; квадратными скобками обозначены формы облаков: Ci - перистые, Cs - перисто-слоистые, Cc - перисто-кучевые, Ac - высококучевые, As - высокослоистые, Sc - слоисто-кучевые, Ns - слоисто-дождевые, Cu - кучевые, Cb - кучево-дождевые. Подробнее классификацию облаков см. в Атласе облаков (PDF).
T - Температура воздуха - температура, измеренная на высоте 2 м над землей.
Td - Температура точки росы - температура, при понижении до которой содержащийся в воздухе водяной пар достигнет насыщения.
f - Относительная влажность воздуха - влажноcть воздуха, измеренная на высоте 2 м над землей.
Te - Эффективная температура - температура, которую ощущает одетый по сезону человек в тени. Характеристика душности погоды. При расчете учитывается влияние влажности воздуха и скорости ветра на теплоощущения человека.
Tes - Эффективная температура на солнце - температура, которую ощущает человек, с поправкой на солнечный нагрев. Характеристика знойности погоды. Зависит от высоты солнца над горизонтом, облачности и скорости ветра. Ночью, в пасмурную погоду, а также при ветре 12 м/с и более поправка равна нулю.
P - Атмосферное давление - приведенное к уровню моря атмосферное давление.
Po - Атмосферное давление - измеренное на уровне метеостанции атмосферное давление.
Tmin - Минимальная температура - минимум температуры воздуха на высоте 2 м над землей.
Tmax - Максимальная температура - максимум температуры воздуха на высоте 2 м над землей.
R - Количество осадков - Количество выпавших осадков за период времени, мм. При наведении курсора мыши на число - период времени, за который выпало указанное количество осадков.
R24 - Количество осадков - Количество выпавших осадков за 24 часа, мм.
S - Снежный покров - Высота снежного покрова, см. При наведении курсора мыши на число - состояние снежного покрова и степень покрытия местности в баллах.